Hourly Weather Roundup
Issued by NWS Central Illinois

Home | Current Version | Previous Version | Text Only | Print | Product List | Glossary On
Versions: 1 2 3 4 5 6 7 8 9 10 11 12 13 14 15 16 17 18 19 20 21 22 23 24 25 26 27 28 29 30 31 32 33 34 35 36 37 38 39 40 41 42 43 44 45 46 47 48 49 50
140
NZUS43 KILX 082210
HWRILX

AREA WEATHER ROUNDUP
NATIONAL WEATHER SERVICE, LINCOLN IL
400 PM CST MON FEB 08 2016


CITY           SKY/WX    TMP DP  RH WIND       PRES   REMARKS
BLOOMINGTON    LGT SNOW  21  18  88 NW18      29.80R FOG     WCI   6
CHAMPAIGN      CLOUDY    22  16  78 W23       29.79S WCI   6
DANVILLE       LGT SNOW  23  18  83 W14       29.75R WCI  10
DECATUR        LGT SNOW  22  15  75 W16       29.83R WCI   8
EFFINGHAM      LGT SNOW  23  19  87 W13G22    29.88R WCI  11
FLORA          LGT SNOW  26  19  77 W24       29.88R WCI  10
GALESBURG      FLURRIES  19  13  78 W18G25    29.85R WCI   4
JACKSONVILLE   FLURRIES  23  15  71 W17G25    29.89R WCI   9
LACON          FLURRIES  22  15  76 W10G22    29.81R WCI  11
LAWRENCEVILLE  LGT SNOW  26  21  81 W21       29.84R VSB 1   WCI  12
LITCHFIELD     LGT SNOW  22  15  75 W17G23    29.88R WCI   7
$$


CITY           SKY/WX    TMP DP  RH WIND       PRES   REMARKS
LINCOLN        LGT SNOW  22  17  79 W12G20    29.84R WCI  11
MACOMB         FLURRIES  20  15  81 NW26G32   29.90R WCI   2
MATTOON        LGT SNOW  21  16  81 W22       29.82R WCI   5
MT CARMEL AP   CLOUDY    28  19  69 W20       29.84R WCI  15
OLNEY-NOBLE AP LGT SNOW  25  21  86 W17       29.87R WCI  11
PARIS          LGT SNOW  23  20  89 W20G26    29.81R WCI   8
PEORIA         FLURRIES  21  12  68 NW10      29.84R WCI  10
PONTIAC        FLURRIES  24  19  80 W20       29.78R WCI  10
RANTOUL        LGT SNOW  24  19  80 NW14      29.78R WCI  12
ROBINSON       LGT SNOW  26  20  80 NW16      29.84R WCI  13
SPRINGFIELD    LGT SNOW  21  17  84 W16       29.87R FOG     WCI   7
TAYLORVILLE    LGT SNOW  21  16  79 W18G25    29.87R WCI   6
$$

...REGIONAL REPORTS...


CITY           SKY/WX    TMP DP  RH WIND       PRES   REMARKS
CHICAGO O`HARE CLOUDY    27  20  75 NW13      29.70R WCI  16
KANKAKEE       CLOUDY    27  19  72 W14       29.75R WCI  15
MOLINE         CLOUDY    20  12  71 NW15G25   29.85R WCI   6
MOUNT STERLING LGT SNOW  19  13  77 NW21G29   29.89R WCI   3
MOUNT VERNON   CLOUDY    27  14  59 NW8       29.89R WCI  18
PITTSFIELD     LGT SNOW  22  15  76 NW10G16   29.91S WCI  11
QUINCY         LGT SNOW  19  11  70 NW23      29.92R WCI   2
ROCKFORD       CLOUDY    26  17  68 NW15      29.76R WCI  14
$$


CITY           SKY/WX    TMP DP  RH WIND       PRES   REMARKS
BURLINGTON     LGT SNOW  19  13  77 NW13G23   29.89R WCI   6
CEDAR RAPIDS   FLURRIES  17  10  74 NW26G33   29.89R WCI  -2
DES MOINES     LGT SNOW  19   9  65 NW21G40   30.01R BLWGSNOWWCI   3
KIRKSVILLE     FLURRIES  22   9  57 NW20G26   29.98R WCI   7
OTTUMWA        NOT AVBL
ST LOUIS       LGT SNOW  26  15  63 NW16G24   29.92R WCI  14
$$


CITY           SKY/WX    TMP DP  RH WIND       PRES   REMARKS
TERRE HAUTE    LGT SNOW  25  17  72 NW12G21   29.80R WCI  14
EVANSVILLE     CLOUDY    32  19  58 NW15G23   29.85R WCI  22
INDIANAPOLIS   LGT SNOW  27  23  85 W17       29.72R FOG     WCI  14
LAFAYETTE      CLOUDY    25  18  74 W15       29.74S WCI  13
MADISON        FLURRIES  22  14  71 NW14G21   29.74R WCI   9
MILWAUKEE      FLURRIES  27  20  75 NW13      29.68R WCI  16
$$






USA.gov is the U.S. government's official web portal to all federal, state and local government web resources and services.